Check out our new BloomSky Weather System.

Active alerts

Galveston, TX
  Details for Galveston, TX Coastal Flood Advisory  +3 additional alerts
Houston, TX
  Details for Houston, TX Flash Flood Watch
Fort Bend, TX
  Details for Fort Bend, TX Flash Flood Watch


Thunder radar  blitzortung!


Rain radar more information rain snow radar


Visit our other weather sites:

Template documentation
and downloads

And another site



Weather Underground History page Text

Daily Summary for May 30, 2017 Units:  English    Metric   Both
« Previous Day
Next Day »
Daily Weekly Monthly Yearly Custom
  High: Low: Average:
Temperature: TemperatureF °F 69.6 °F 78.8 °F
Dew Point: DewpointF °F 69.1 °F 71.7 °F
Humidity: Humidity % 59 % 80 %
Wind Speed: WindSpeedMPH mph 0.0 mph 1.5 mph
Wind Gust: WindSpeedGustMPH mph - -
Wind:- - South
Pressure: PressureIn in 29.94 in -
Precipitation: 0.00 in    
Historical Graphs
 
 
Tabular Data for May 30, 2017
Time Temperature Dew Point Pressure Wind Wind Speed Wind Gust Humidity Rainfall Rate (Hourly)
TemperatureF °F DewpointF °F PressureIn in Calm     Humidity % HourlyPrecipIn in
00:03 72.9 °F 70.7 °F 30.01 in Calm     93 % 0.00 in
00:08 72.7 °F 70.5 °F 30.01 in Calm     93 % 0.00 in
00:13 72.5 °F 70.3 °F 30.01 in Calm     93 % 0.00 in
00:18 72.3 °F 70.2 °F 30.01 in Calm     93 % 0.00 in
00:23 72.3 °F 70.5 °F 30.01 in Calm     94 % 0.00 in
00:28 72.3 °F 70.5 °F 30.01 in Calm     94 % 0.00 in
00:33 72.1 °F 70.3 °F 30.01 in Calm     94 % 0.00 in
00:38 72.3 °F 70.5 °F 30.01 in Calm     94 % 0.00 in
00:43 72.1 °F 70.3 °F 30.01 in Calm     94 % 0.00 in
00:48 72.1 °F 70.3 °F 30.01 in Calm   1.0 mph 94 % 0.00 in
00:53 72.1 °F 70.7 °F 30.02 in Calm   1.0 mph 95 % 0.00 in
00:58 71.8 °F 70.0 °F 30.02 in Calm   1.0 mph 94 % 0.00 in
01:03 71.6 °F 69.8 °F 30.02 in Calm   1.0 mph 94 % 0.00 in
01:08 71.8 °F 70.3 °F 30.01 in Calm     95 % 0.00 in
01:13 71.8 °F 70.3 °F 30.01 in Calm   1.0 mph 95 % 0.00 in
01:18 71.6 °F 70.2 °F 30.01 in Calm   1.0 mph 95 % 0.00 in
01:23 71.8 °F 70.3 °F 30.01 in Calm   1.0 mph 95 % 0.00 in
01:28 71.6 °F 70.2 °F 30.01 in Calm   1.0 mph 95 % 0.00 in
01:33 71.4 °F 70.0 °F 30.01 in Calm   1.0 mph 95 % 0.00 in
01:38 71.4 °F 70.2 °F 30.01 in Calm     96 % 0.00 in
01:43 71.4 °F 70.0 °F 30.01 in Calm     95 % 0.00 in
01:48 71.4 °F 70.2 °F 30.01 in Calm     96 % 0.00 in
01:53 71.4 °F 70.2 °F 30.01 in Calm     96 % 0.00 in
01:58 71.2 °F 70.0 °F 30.01 in Calm     96 % 0.00 in
02:03 71.1 °F 69.8 °F 30.01 in Calm     96 % 0.00 in
02:08 71.1 °F 69.8 °F 30.01 in Calm     96 % 0.00 in
02:13 71.1 °F 69.8 °F 30.01 in Calm     96 % 0.00 in
02:18 71.1 °F 69.8 °F 30.01 in Calm     96 % 0.00 in
02:23 70.9 °F 69.6 °F 30.00 in Calm   1.0 mph 96 % 0.00 in
02:28 70.9 °F 69.6 °F 30.00 in Calm   1.0 mph 96 % 0.00 in
02:33 70.9 °F 69.6 °F 30.00 in Calm   1.0 mph 96 % 0.00 in
02:38 70.7 °F 69.4 °F 30.00 in Calm   1.0 mph 96 % 0.00 in
02:43 70.5 °F 69.3 °F 30.00 in Calm     96 % 0.00 in
02:48 70.5 °F 69.3 °F 30.00 in Calm     96 % 0.00 in
02:53 70.3 °F 69.1 °F 30.00 in Calm     96 % 0.00 in
02:58 70.3 °F 69.4 °F 30.00 in Calm     97 % 0.00 in
03:03 70.3 °F 69.4 °F 30.00 in Calm     97 % 0.00 in
03:08 70.2 °F 69.3 °F 30.00 in Calm     97 % 0.00 in
03:13 70.2 °F 69.3 °F 30.00 in Calm     97 % 0.00 in
03:18 70.3 °F 69.4 °F 29.99 in Calm   1.0 mph 97 % 0.00 in
03:23 70.3 °F 69.4 °F 29.99 in Calm   1.0 mph 97 % 0.00 in
03:28 70.3 °F 69.4 °F 29.99 in Calm   1.0 mph 97 % 0.00 in
03:39 70.2 °F 69.3 °F 29.99 in Calm   1.0 mph 97 % 0.00 in
03:44 70.2 °F 69.3 °F 29.99 in Calm   1.0 mph 97 % 0.00 in
03:49 70.2 °F 69.3 °F 29.99 in Calm   1.0 mph 97 % 0.00 in
03:54 70.2 °F 69.3 °F 29.99 in Calm   1.0 mph 97 % 0.00 in
03:59 70.2 °F 69.3 °F 30.00 in Calm   1.0 mph 97 % 0.00 in
04:00 70.3 °F 69.4 °F 29.99 in Calm   1.0 mph 97 % 0.00 in
04:05 70.3 °F 69.4 °F 29.99 in Calm   1.0 mph 97 % 0.00 in
04:10 70.3 °F 69.4 °F 30.00 in Calm   1.0 mph 97 % 0.00 in
04:15 70.3 °F 69.4 °F 30.00 in Calm   1.0 mph 97 % 0.00 in
04:20 70.3 °F 69.4 °F 30.00 in Calm   1.0 mph 97 % 0.00 in
04:25 70.3 °F 69.4 °F 30.00 in NW 1.0 mph 2.0 mph 97 % 0.00 in
04:30 70.2 °F 69.3 °F 30.00 in Calm   2.0 mph 97 % 0.00 in
04:35 70.2 °F 69.3 °F 30.00 in Calm   2.0 mph 97 % 0.00 in
04:40 70.2 °F 69.6 °F 30.00 in Calm   2.0 mph 98 % 0.00 in
04:45 70.2 °F 69.6 °F 30.01 in Calm   2.0 mph 98 % 0.00 in
04:50 70.2 °F 69.6 °F 30.01 in Calm   2.0 mph 98 % 0.00 in
04:54 70.2 °F 69.6 °F 30.01 in Calm   2.0 mph 98 % 0.00 in
04:59 70.2 °F 69.6 °F 30.01 in Calm   2.0 mph 98 % 0.00 in
05:04 70.0 °F 69.4 °F 30.01 in Calm   1.0 mph 98 % 0.00 in
05:09 70.0 °F 69.4 °F 30.01 in Calm   1.0 mph 98 % 0.00 in
05:14 70.0 °F 69.4 °F 30.01 in Calm   1.0 mph 98 % 0.00 in
05:19 70.0 °F 69.4 °F 30.01 in Calm   1.0 mph 98 % 0.00 in
05:24 69.8 °F 69.3 °F 30.01 in Calm   1.0 mph 98 % 0.00 in
05:29 69.8 °F 69.3 °F 30.01 in Calm   1.0 mph 98 % 0.00 in
05:34 69.8 °F 69.3 °F 30.01 in Calm   1.0 mph 98 % 0.00 in
05:39 69.8 °F 69.3 °F 30.01 in Calm   1.0 mph 98 % 0.00 in
05:44 69.8 °F 69.3 °F 30.01 in Calm   1.0 mph 98 % 0.00 in
05:49 69.6 °F 69.1 °F 30.01 in Calm   1.0 mph 98 % 0.00 in
05:54 69.6 °F 69.1 °F 30.01 in Calm   1.0 mph 98 % 0.00 in
05:59 69.6 °F 69.1 °F 30.01 in Calm   1.0 mph 98 % 0.00 in
06:04 69.6 °F 69.1 °F 30.01 in Calm   1.0 mph 98 % 0.00 in
06:14 69.6 °F 69.1 °F 30.01 in Calm   1.0 mph 98 % 0.00 in
06:19 69.6 °F 69.1 °F 30.01 in NNW 1.0 mph 1.0 mph 98 % 0.00 in
06:29 69.6 °F 69.1 °F 30.01 in Calm   1.0 mph 98 % 0.00 in
06:34 69.6 °F 69.1 °F 30.01 in Calm   1.0 mph 98 % 0.00 in
06:39 69.8 °F 69.3 °F 30.01 in Calm   2.0 mph 98 % 0.00 in
06:44 69.8 °F 69.3 °F 30.01 in Calm   2.0 mph 98 % 0.00 in
06:49 70.0 °F 69.4 °F 30.01 in NNW 1.0 mph 2.0 mph 98 % 0.00 in
06:54 70.0 °F 69.4 °F 30.01 in Calm   3.0 mph 98 % 0.00 in
06:59 70.0 °F 69.4 °F 30.01 in North 2.0 mph 3.0 mph 98 % 0.00 in
07:04 70.2 °F 69.6 °F 30.01 in Calm   3.0 mph 98 % 0.00 in
07:09 70.2 °F 69.6 °F 30.01 in NNW 1.0 mph 2.0 mph 98 % 0.00 in
07:15 70.3 °F 69.8 °F 30.01 in Calm   2.0 mph 98 % 0.00 in
07:19 70.7 °F 70.2 °F 30.01 in Calm   2.0 mph 98 % 0.00 in
07:25 71.2 °F 70.9 °F 30.02 in NNE 1.0 mph 2.0 mph 99 % 0.00 in
07:30 71.4 °F 70.9 °F 30.02 in North 1.0 mph 2.0 mph 98 % 0.00 in
07:35 71.8 °F 71.2 °F 30.02 in Calm   2.0 mph 98 % 0.00 in
07:40 72.0 °F 71.4 °F 30.02 in Calm   2.0 mph 98 % 0.00 in
07:45 72.1 °F 71.6 °F 30.02 in North 1.0 mph 2.0 mph 98 % 0.00 in
07:50 72.1 °F 71.6 °F 30.02 in Calm   3.0 mph 98 % 0.00 in
07:51 72.3 °F 71.8 °F 30.02 in Calm   3.0 mph 98 % 0.00 in
07:56 72.9 °F 72.3 °F 30.02 in Calm   3.0 mph 98 % 0.00 in
08:01 72.7 °F 71.8 °F 30.02 in NW 2.0 mph 2.0 mph 97 % 0.00 in
08:06 72.9 °F 72.0 °F 30.02 in Calm   3.0 mph 97 % 0.00 in
08:11 73.0 °F 72.1 °F 30.03 in North 1.0 mph 3.0 mph 97 % 0.00 in
08:16 73.2 °F 72.3 °F 30.03 in Calm   3.0 mph 97 % 0.00 in
08:21 73.6 °F 72.7 °F 30.02 in Calm   3.0 mph 97 % 0.00 in
08:26 73.8 °F 72.5 °F 30.02 in NNE 2.0 mph 3.0 mph 96 % 0.00 in
08:31 73.6 °F 72.1 °F 30.02 in NNW 3.0 mph 5.0 mph 95 % 0.00 in
08:36 73.8 °F 72.0 °F 30.02 in Calm   5.0 mph 94 % 0.00 in
08:41 74.1 °F 72.3 °F 30.02 in Calm   5.0 mph 94 % 0.00 in
08:46 75.0 °F 72.9 °F 30.02 in North 2.0 mph 5.0 mph 93 % 0.00 in
08:51 75.4 °F 72.5 °F 30.03 in NNE 1.0 mph 5.0 mph 91 % 0.00 in
08:56 75.9 °F 72.5 °F 30.03 in ESE 1.0 mph 5.0 mph 89 % 0.00 in
09:01 76.3 °F 72.9 °F 30.02 in ENE 1.0 mph 5.0 mph 89 % 0.00 in
09:06 76.8 °F 72.7 °F 30.02 in Calm   4.0 mph 87 % 0.00 in
09:11 77.4 °F 72.5 °F 30.02 in North 1.0 mph 6.0 mph 85 % 0.00 in
09:12 77.4 °F 72.5 °F 30.02 in ENE 3.0 mph 6.0 mph 85 % 0.00 in
09:17 77.9 °F 72.7 °F 30.02 in Calm   6.0 mph 84 % 0.00 in
09:22 78.4 °F 72.9 °F 30.02 in Calm   6.0 mph 83 % 0.00 in
09:27 78.8 °F 72.9 °F 30.02 in Calm   5.0 mph 82 % 0.00 in
09:32 79.2 °F 73.2 °F 30.02 in East 1.0 mph 5.0 mph 82 % 0.00 in
09:37 79.5 °F 73.2 °F 30.02 in NNE 2.0 mph 5.0 mph 81 % 0.00 in
09:42 80.1 °F 73.8 °F 30.02 in Calm   5.0 mph 81 % 0.00 in
09:47 80.4 °F 73.2 °F 30.02 in WNW 3.0 mph 5.0 mph 79 % 0.00 in
09:52 80.2 °F 73.0 °F 30.02 in Calm   6.0 mph 79 % 0.00 in
09:57 80.4 °F 73.2 °F 30.02 in Calm   6.0 mph 79 % 0.00 in
10:02 80.8 °F 73.6 °F 30.02 in East 4.0 mph 6.0 mph 79 % 0.00 in
10:07 80.8 °F 73.6 °F 30.02 in North 2.0 mph 6.0 mph 79 % 0.00 in
10:12 81.3 °F 73.8 °F 30.02 in NE 2.0 mph 6.0 mph 78 % 0.00 in
10:17 81.3 °F 73.8 °F 30.02 in Calm   6.0 mph 78 % 0.00 in
10:22 81.9 °F 73.9 °F 30.02 in North 2.0 mph 6.0 mph 77 % 0.00 in
10:27 82.2 °F 73.9 °F 30.02 in NE 4.0 mph 6.0 mph 76 % 0.00 in
10:32 82.2 °F 73.6 °F 30.02 in NNW 4.0 mph 5.0 mph 75 % 0.00 in
10:37 82.4 °F 74.1 °F 30.01 in Calm   6.0 mph 76 % 0.00 in
10:42 82.8 °F 74.8 °F 30.02 in West 1.0 mph 6.0 mph 77 % 0.00 in
10:47 82.8 °F 73.9 °F 30.02 in NW 1.0 mph 6.0 mph 75 % 0.00 in
10:52 82.4 °F 74.1 °F 30.02 in NE 5.0 mph 7.0 mph 76 % 0.00 in
10:57 82.8 °F 74.5 °F 30.01 in ENE 1.0 mph 7.0 mph 76 % 0.00 in
11:02 82.9 °F 73.4 °F 30.01 in East 2.0 mph 7.0 mph 73 % 0.00 in
11:07 82.9 °F 73.4 °F 30.01 in NNE 4.0 mph 7.0 mph 73 % 0.00 in
11:12 82.9 °F 73.8 °F 30.01 in NNW 2.0 mph 12.0 mph 74 % 0.00 in
11:17 82.9 °F 73.8 °F 30.01 in WNW 4.0 mph 12.0 mph 74 % 0.00 in
11:22 82.9 °F 73.0 °F 30.01 in ENE 3.0 mph 12.0 mph 72 % 0.00 in
11:27 83.1 °F 73.6 °F 30.01 in Calm   7.0 mph 73 % 0.00 in
11:32 83.8 °F 74.3 °F 30.01 in NE 3.0 mph 8.0 mph 73 % 0.00 in
11:37 83.8 °F 73.4 °F 30.01 in NNW 4.0 mph 8.0 mph 71 % 0.00 in
11:42 84.0 °F 73.6 °F 30.01 in ESE 1.0 mph 8.0 mph 71 % 0.00 in
11:43 84.2 °F 74.1 °F 30.01 in NE 5.0 mph 8.0 mph 72 % 0.00 in
11:48 83.8 °F 73.0 °F 30.01 in Calm   9.0 mph 70 % 0.00 in
11:53 84.6 °F 74.5 °F 30.01 in East 7.0 mph 9.0 mph 72 % 0.00 in
11:54 84.6 °F 74.5 °F 30.01 in ESE 6.0 mph 9.0 mph 72 % 0.00 in
11:59 84.9 °F 74.1 °F 30.01 in WNW 3.0 mph 10.0 mph 70 % 0.00 in
12:04 85.3 °F 74.3 °F 30.01 in WSW 1.0 mph 10.0 mph 70 % 0.00 in
12:09 85.3 °F 73.0 °F 30.01 in NW 2.0 mph 10.0 mph 67 % 0.00 in
12:14 85.6 °F 73.9 °F 30.01 in SSE 2.0 mph 9.0 mph 68 % 0.00 in
12:19 85.8 °F 73.9 °F 30.01 in NNW 2.0 mph 9.0 mph 68 % 0.00 in
12:24 86.2 °F 73.4 °F 30.01 in Calm   7.0 mph 66 % 0.00 in
12:29 85.6 °F 73.0 °F 30.01 in West 1.0 mph 8.0 mph 66 % 0.00 in
12:34 85.6 °F 74.3 °F 30.01 in North 3.0 mph 8.0 mph 69 % 0.00 in
12:39 85.6 °F 73.0 °F 30.01 in NNW 7.0 mph 8.0 mph 66 % 0.00 in
12:44 85.5 °F 72.9 °F 30.01 in WNW 5.0 mph 11.0 mph 66 % 0.00 in
12:49 84.7 °F 72.1 °F 30.01 in NNW 3.0 mph 11.0 mph 66 % 0.00 in
12:54 84.9 °F 73.2 °F 30.01 in ENE 5.0 mph 11.0 mph 68 % 0.00 in
12:59 85.1 °F 73.4 °F 30.01 in West 3.0 mph 10.0 mph 68 % 0.00 in
13:04 85.5 °F 73.2 °F 30.00 in North 3.0 mph 10.0 mph 67 % 0.00 in
13:09 85.6 °F 73.0 °F 30.00 in East 3.0 mph 10.0 mph 66 % 0.00 in
13:14 85.5 °F 72.3 °F 30.00 in NW 1.0 mph 8.0 mph 65 % 0.00 in
13:19 86.0 °F 72.3 °F 30.00 in East 3.0 mph 8.0 mph 64 % 0.00 in
13:24 85.6 °F 72.1 °F 30.00 in East 1.0 mph 10.0 mph 64 % 0.00 in
13:29 85.5 °F 72.9 °F 30.00 in NE 3.0 mph 10.0 mph 66 % 0.00 in
13:34 85.6 °F 73.0 °F 30.00 in NNW 2.0 mph 10.0 mph 66 % 0.00 in
13:39 86.5 °F 73.8 °F 29.99 in NNW 3.0 mph 9.0 mph 66 % 0.00 in
13:44 87.6 °F 74.3 °F 29.99 in WNW 2.0 mph 9.0 mph 65 % 0.00 in
13:45 87.8 °F 74.5 °F 29.99 in NNW 4.0 mph 8.0 mph 65 % 0.00 in
13:50 87.3 °F 72.7 °F 29.99 in NNE 4.0 mph 7.0 mph 62 % 0.00 in
13:55 87.1 °F 72.9 °F 29.99 in NE 2.0 mph 8.0 mph 63 % 0.00 in
14:06 87.4 °F 73.2 °F 29.99 in NNW 5.0 mph 8.0 mph 63 % 0.00 in
14:11 87.3 °F 73.0 °F 29.98 in NW 3.0 mph 9.0 mph 63 % 0.00 in
14:16 87.4 °F 72.9 °F 29.98 in NW 1.0 mph 9.0 mph 62 % 0.00 in
14:21 88.0 °F 73.4 °F 29.98 in NNW 2.0 mph 9.0 mph 62 % 0.00 in
14:27 88.0 °F 73.4 °F 29.98 in NNW 3.0 mph 7.0 mph 62 % 0.00 in
14:32 87.6 °F 73.4 °F 29.98 in North 9.0 mph 9.0 mph 63 % 0.00 in
14:37 87.4 °F 72.3 °F 29.97 in NNW 2.0 mph 12.0 mph 61 % 0.00 in
14:42 87.3 °F 73.6 °F 29.97 in ENE 5.0 mph 12.0 mph 64 % 0.00 in
14:47 87.6 °F 73.0 °F 29.97 in NW 2.0 mph 12.0 mph 62 % 0.00 in
14:52 87.6 °F 72.5 °F 29.97 in East 3.0 mph 9.0 mph 61 % 0.00 in
14:57 87.4 °F 72.3 °F 29.97 in NNW 1.0 mph 9.0 mph 61 % 0.00 in
15:02 87.3 °F 72.7 °F 29.97 in NW 4.0 mph 8.0 mph 62 % 0.00 in
15:07 86.5 °F 72.0 °F 29.97 in NNE 2.0 mph 8.0 mph 62 % 0.00 in
15:12 85.8 °F 71.8 °F 29.97 in ENE 7.0 mph 8.0 mph 63 % 0.00 in
15:17 86.5 °F 73.4 °F 29.96 in North 3.0 mph 8.0 mph 65 % 0.00 in
15:22 87.3 °F 73.6 °F 29.96 in NW 5.0 mph 8.0 mph 64 % 0.00 in
15:27 87.4 °F 73.2 °F 29.96 in WNW 2.0 mph 8.0 mph 63 % 0.00 in
15:32 87.8 °F 73.2 °F 29.96 in ENE 2.0 mph 8.0 mph 62 % 0.00 in
15:37 87.6 °F 72.5 °F 29.96 in SSE 3.0 mph 8.0 mph 61 % 0.00 in
15:42 88.0 °F 72.3 °F 29.96 in ESE 2.0 mph 8.0 mph 60 % 0.00 in
15:47 88.2 °F 73.0 °F 29.95 in North 2.0 mph 8.0 mph 61 % 0.00 in
15:52 87.6 °F 72.5 °F 29.95 in NNW 1.0 mph 13.0 mph 61 % 0.00 in
15:57 87.3 °F 72.7 °F 29.95 in ESE 1.0 mph 13.0 mph 62 % 0.00 in
16:02 87.6 °F 73.4 °F 29.95 in NNW 3.0 mph 13.0 mph 63 % 0.00 in
16:07 88.2 °F 72.5 °F 29.95 in North 6.0 mph 9.0 mph 60 % 0.00 in
16:12 88.3 °F 72.1 °F 29.94 in North 3.0 mph 9.0 mph 59 % 0.00 in
16:17 88.5 °F 72.3 °F 29.95 in NNW 3.0 mph 9.0 mph 59 % 0.00 in
16:22 88.2 °F 72.5 °F 29.95 in NNW 2.0 mph 8.0 mph 60 % 0.00 in
16:27 88.2 °F 73.0 °F 29.94 in West 4.0 mph 8.0 mph 61 % 0.00 in
16:28 88.2 °F 73.0 °F 29.94 in WNW 1.0 mph 8.0 mph 61 % 0.00 in
16:33 88.9 °F 73.8 °F 29.94 in NNE 2.0 mph 8.0 mph 61 % 0.00 in
16:38 88.5 °F 72.3 °F 29.94 in ENE 1.0 mph 8.0 mph 59 % 0.00 in
16:43 88.5 °F 73.8 °F 29.94 in NE 6.0 mph 9.0 mph 62 % 0.00 in
16:48 88.7 °F 73.6 °F 29.94 in ESE 2.0 mph 10.0 mph 61 % 0.00 in
16:53 88.9 °F 73.8 °F 29.94 in WNW 2.0 mph 10.0 mph 61 % 0.00 in
16:58 88.5 °F 72.9 °F 29.94 in NNW 7.0 mph 10.0 mph 60 % 0.00 in
17:03 88.2 °F 73.0 °F 29.94 in NNW 2.0 mph 12.0 mph 61 % 0.00 in
17:08 88.0 °F 72.9 °F 29.94 in NW 2.0 mph 12.0 mph 61 % 0.00 in
17:13 88.3 °F 73.2 °F 29.94 in East 4.0 mph 12.0 mph 61 % 0.00 in
17:18 88.0 °F 73.4 °F 29.94 in Calm   8.0 mph 62 % 0.00 in
17:24 87.6 °F 73.0 °F 29.94 in North 4.0 mph 9.0 mph 62 % 0.00 in
17:29 87.3 °F 72.7 °F 29.94 in NNW 5.0 mph 9.0 mph 62 % 0.00 in
17:34 86.9 °F 71.8 °F 29.94 in NNW 6.0 mph 9.0 mph 61 % 0.00 in
17:39 86.7 °F 72.1 °F 29.94 in NE 2.0 mph 6.0 mph 62 % 0.00 in
17:44 86.7 °F 72.1 °F 29.94 in North 3.0 mph 6.0 mph 62 % 0.00 in
17:49 87.1 °F 72.5 °F 29.94 in WNW 3.0 mph 6.0 mph 62 % 0.00 in
17:54 86.9 °F 72.9 °F 29.94 in North 4.0 mph 7.0 mph 63 % 0.00 in
17:59 86.7 °F 72.7 °F 29.94 in Calm   7.0 mph 63 % 0.00 in
18:04 86.7 °F 72.7 °F 29.94 in NNW 4.0 mph 7.0 mph 63 % 0.00 in
18:09 86.4 °F 72.3 °F 29.95 in North 4.0 mph 8.0 mph 63 % 0.00 in
18:14 86.0 °F 72.0 °F 29.95 in NNW 2.0 mph 8.0 mph 63 % 0.00 in
18:19 85.8 °F 71.8 °F 29.95 in WNW 2.0 mph 8.0 mph 63 % 0.00 in
18:24 85.8 °F 72.1 °F 29.95 in NNW 1.0 mph 6.0 mph 64 % 0.00 in
18:29 85.8 °F 72.1 °F 29.95 in NW 1.0 mph 6.0 mph 64 % 0.00 in
18:34 85.8 °F 72.7 °F 29.96 in North 1.0 mph 8.0 mph 65 % 0.00 in
18:39 85.8 °F 72.7 °F 29.96 in Calm   8.0 mph 65 % 0.00 in
18:44 85.6 °F 73.0 °F 29.96 in ENE 2.0 mph 8.0 mph 66 % 0.00 in
18:49 85.5 °F 73.2 °F 29.95 in East 2.0 mph 5.0 mph 67 % 0.00 in
18:54 85.3 °F 73.6 °F 29.95 in SSE 2.0 mph 6.0 mph 68 % 0.00 in
18:59 84.7 °F 73.4 °F 29.95 in East 5.0 mph 6.0 mph 69 % 0.00 in
19:04 84.4 °F 73.6 °F 29.95 in ENE 2.0 mph 6.0 mph 70 % 0.00 in
19:09 84.2 °F 73.4 °F 29.95 in Calm   6.0 mph 70 % 0.00 in
19:14 84.0 °F 73.2 °F 29.96 in ENE 3.0 mph 6.0 mph 70 % 0.00 in
19:19 83.8 °F 73.0 °F 29.96 in Calm   7.0 mph 70 % 0.00 in
19:24 83.8 °F 73.0 °F 29.96 in East 1.0 mph 7.0 mph 70 % 0.00 in
19:29 83.7 °F 72.9 °F 29.96 in East 3.0 mph 7.0 mph 70 % 0.00 in
19:34 83.5 °F 73.0 °F 29.96 in ENE 1.0 mph 5.0 mph 71 % 0.00 in
19:39 83.5 °F 73.0 °F 29.96 in Calm   5.0 mph 71 % 0.00 in
19:44 83.3 °F 72.9 °F 29.96 in Calm   5.0 mph 71 % 0.00 in
19:49 83.1 °F 72.7 °F 29.96 in NW 1.0 mph 4.0 mph 71 % 0.00 in
19:54 83.1 °F 72.7 °F 29.96 in ESE 2.0 mph 4.0 mph 71 % 0.00 in
19:59 82.9 °F 73.0 °F 29.96 in Calm   4.0 mph 72 % 0.00 in
20:04 82.9 °F 73.0 °F 29.96 in Calm   4.0 mph 72 % 0.00 in
20:10 82.8 °F 73.2 °F 29.97 in Calm   3.0 mph 73 % 0.00 in
20:15 82.6 °F 73.0 °F 29.97 in Calm   3.0 mph 73 % 0.00 in
20:20 82.4 °F 72.9 °F 29.97 in Calm   3.0 mph 73 % 0.00 in
20:25 82.2 °F 73.0 °F 29.97 in ENE 1.0 mph 2.0 mph 74 % 0.00 in
20:30 82.0 °F 72.9 °F 29.97 in ESE 1.0 mph 2.0 mph 74 % 0.00 in
20:35 81.9 °F 72.7 °F 29.97 in Calm   3.0 mph 74 % 0.00 in
20:40 81.9 °F 73.2 °F 29.96 in East 1.0 mph 3.0 mph 75 % 0.00 in
20:45 81.9 °F 73.2 °F 29.96 in SE 2.0 mph 3.0 mph 75 % 0.00 in
20:50 81.7 °F 72.5 °F 29.96 in East 2.0 mph 4.0 mph 74 % 0.00 in
20:55 81.7 °F 72.5 °F 29.96 in Calm   4.0 mph 74 % 0.00 in
21:00 81.5 °F 72.9 °F 29.96 in NW 1.0 mph 4.0 mph 75 % 0.00 in
21:05 81.3 °F 72.7 °F 29.96 in Calm   4.0 mph 75 % 0.00 in
21:10 81.3 °F 72.7 °F 29.96 in Calm   4.0 mph 75 % 0.00 in
21:15 81.3 °F 72.7 °F 29.96 in Calm   2.0 mph 75 % 0.00 in
21:20 81.5 °F 72.9 °F 29.96 in North 2.0 mph 3.0 mph 75 % 0.00 in
21:25 81.3 °F 73.0 °F 29.96 in SE 1.0 mph 6.0 mph 76 % 0.00 in
21:30 81.1 °F 73.2 °F 29.96 in SE 2.0 mph 6.0 mph 77 % 0.00 in
21:35 81.0 °F 73.4 °F 29.96 in Calm   6.0 mph 78 % 0.00 in
21:40 80.8 °F 73.6 °F 29.96 in East 1.0 mph 5.0 mph 79 % 0.00 in
21:45 80.6 °F 73.9 °F 29.97 in ESE 3.0 mph 6.0 mph 80 % 0.00 in
21:50 80.4 °F 73.8 °F 29.97 in SSW 2.0 mph 6.0 mph 80 % 0.00 in
21:55 80.2 °F 73.9 °F 29.97 in SSE 3.0 mph 6.0 mph 81 % 0.00 in
22:00 80.1 °F 73.8 °F 29.97 in SE 4.0 mph 6.0 mph 81 % 0.00 in
22:05 79.7 °F 73.4 °F 29.98 in SE 3.0 mph 9.0 mph 81 % 0.00 in
22:10 79.5 °F 73.6 °F 29.98 in ESE 2.0 mph 9.0 mph 82 % 0.00 in
22:15 79.3 °F 73.4 °F 29.98 in SE 2.0 mph 9.0 mph 82 % 0.00 in
22:20 79.3 °F 73.4 °F 29.98 in East 2.0 mph 7.0 mph 82 % 0.00 in
22:25 79.2 °F 73.2 °F 29.98 in ESE 3.0 mph 7.0 mph 82 % 0.00 in
22:30 79.0 °F 73.4 °F 29.98 in SE 1.0 mph 6.0 mph 83 % 0.00 in
22:35 78.6 °F 73.0 °F 29.98 in ESE 4.0 mph 8.0 mph 83 % 0.00 in
22:40 78.4 °F 73.2 °F 29.97 in SE 1.0 mph 8.0 mph 84 % 0.00 in
22:45 78.4 °F 73.2 °F 29.98 in ENE 6.0 mph 8.0 mph 84 % 0.00 in
22:50 78.3 °F 73.4 °F 29.98 in North 2.0 mph 7.0 mph 85 % 0.00 in
22:55 78.1 °F 73.2 °F 29.98 in Calm   7.0 mph 85 % 0.00 in
23:00 77.7 °F 72.9 °F 29.99 in ESE 5.0 mph 7.0 mph 85 % 0.00 in
23:05 77.7 °F 72.9 °F 29.99 in Calm   6.0 mph 85 % 0.00 in
23:10 77.5 °F 72.7 °F 29.99 in East 1.0 mph 6.0 mph 85 % 0.00 in
23:15 77.4 °F 72.9 °F 29.99 in East 2.0 mph 6.0 mph 86 % 0.00 in
23:20 77.2 °F 72.7 °F 29.99 in Calm   6.0 mph 86 % 0.00 in
23:25 77.2 °F 72.7 °F 29.99 in SE 1.0 mph 6.0 mph 86 % 0.00 in
23:30 76.8 °F 72.3 °F 29.99 in East 1.0 mph 6.0 mph 86 % 0.00 in
23:35 76.8 °F 72.3 °F 29.99 in SE 1.0 mph 4.0 mph 86 % 0.00 in
23:40 76.6 °F 72.1 °F 29.99 in South 2.0 mph 6.0 mph 86 % 0.00 in
23:45 76.5 °F 72.0 °F 29.99 in ESE 3.0 mph 6.0 mph 86 % 0.00 in
23:50 76.3 °F 71.8 °F 29.99 in ESE 3.0 mph 7.0 mph 86 % 0.00 in
23:56 76.3 °F 72.1 °F 29.99 in ESE 2.0 mph 7.0 mph 87 % 0.00 in
Spring, Texas: Villages of Bridgestone
Compliments of Weather Underground - 3 mb

Script developed by  Jim McMurry - jmcmurry@mwt.net Adapted for the template by  Wim van der Kuil - Leuven-Template.eu

You find our weather info also at:

UK Metoffice

WeatherCloud

Weather Underground

Mid-South Weather Network

AWEKAS

Citizen Weather Observer Program (CWOP)

HAMweather, WeatherForYou, PWS Weather

Equipment we use:

Weather-station
Davis Vantage Vue

Weather-program
Meteohub

Weather-server
Debian 7.9 x86 (Guest)

Provider
DreamHost

Davis Vantage Vue

Meteohub

Debian 7.9 x86 (Guest)

DreamHost